CCA7924 ZBAD-ZSHC

Flight info

Callsign CCA7924
Flight time 1h 38m
Altitude 41100
Route ELKUR W40 YQG W142 DALIM A593 DPX A470 OF W95 SAPIN A470 IGRAT
Aircraft A359/H-SDE2E3GHIJ3J4J5LM1ORWXY/LB1D1

Departure

Time 2026-05-06 09:59
Airport Beijing Daxing International Airport (ZBAD)

Arrival

Time 2026-05-06 11:38
Airport Hangzhou Xiaoshan International Airport (ZSHC)
Time Latitude Longitude Altitude Speed Heading
2026-05-06 08:35 39.50747 116.41809 91 ft 0 kts 294°
2026-05-06 09:41 39.50741 116.41829 98 ft 3 kts 298°
2026-05-06 09:41 39.50730 116.41851 110 ft 3 kts 306°
2026-05-06 09:41 39.50718 116.41871 93 ft 3 kts 319°
2026-05-06 09:42 39.50702 116.41885 89 ft 3 kts 348°
2026-05-06 09:42 39.50687 116.41885 90 ft 0 kts 23°
2026-05-06 09:48 39.50692 116.41888 89 ft 3 kts 23°
2026-05-06 09:48 39.50729 116.41908 94 ft 8 kts 23°
2026-05-06 09:49 39.50801 116.41969 93 ft 11 kts 57°
2026-05-06 09:49 39.50815 116.42034 92 ft 12 kts 81°
2026-05-06 09:49 39.50827 116.42163 93 ft 10 kts 83°
2026-05-06 09:49 39.50838 116.42215 94 ft 5 kts 53°
2026-05-06 09:50 39.50866 116.42216 92 ft 5 kts 354°
2026-05-06 09:50 39.50909 116.42211 92 ft 8 kts 353°
2026-05-06 09:50 39.50950 116.42204 95 ft 10 kts 353°
2026-05-06 09:50 39.51027 116.42193 93 ft 13 kts 353°
2026-05-06 09:51 39.51123 116.42178 92 ft 15 kts 353°
2026-05-06 09:51 39.51236 116.42159 95 ft 17 kts 353°
2026-05-06 09:51 39.51350 116.42141 92 ft 6 kts 353°
2026-05-06 09:51 39.51392 116.42139 92 ft 3 kts 21°
2026-05-06 09:52 39.51406 116.42164 93 ft 4 kts 63°
2026-05-06 09:52 39.51416 116.42214 93 ft 7 kts 82°
2026-05-06 09:52 39.51424 116.42288 93 ft 10 kts 83°
2026-05-06 09:52 39.51433 116.42386 94 ft 12 kts 83°
2026-05-06 09:53 39.51445 116.42505 92 ft 15 kts 83°
2026-05-06 09:53 39.51458 116.42644 92 ft 17 kts 83°
2026-05-06 09:53 39.51472 116.42801 94 ft 18 kts 83°
2026-05-06 09:53 39.51483 116.42917 95 ft 13 kts 83°
2026-05-06 09:54 39.51495 116.43037 93 ft 5 kts 83°
2026-05-06 09:54 39.51499 116.43064 97 ft 4 kts 76°
2026-05-06 09:54 39.51513 116.43095 97 ft 4 kts 48°
2026-05-06 09:54 39.51534 116.43107 97 ft 3 kts 16°
2026-05-06 09:55 39.51541 116.43109 100 ft 0 kts 13°
2026-05-06 09:57 39.51550 116.43111 98 ft 4 kts 13°
2026-05-06 09:57 39.51579 116.43120 100 ft 3 kts 13°
2026-05-06 09:57 39.51583 116.43121 101 ft 0 kts 13°
2026-05-06 09:57 39.51587 116.43123 100 ft 2 kts 13°
2026-05-06 09:58 39.51614 116.43131 103 ft 6 kts 13°
2026-05-06 09:58 39.51656 116.43177 105 ft 10 kts 82°
2026-05-06 09:58 39.51647 116.43267 107 ft 8 kts 103°
2026-05-06 09:58 39.51645 116.43277 105 ft 0 kts 103°
2026-05-06 09:59 39.51615 116.43442 105 ft 53 kts 103°
2026-05-06 09:59 39.51475 116.44217 103 ft 122 kts 104°
2026-05-06 09:59 39.51238 116.45536 173 ft 173 kts 103°
2026-05-06 09:59 39.50966 116.47051 938 ft 168 kts 103°
2026-05-06 10:00 39.50705 116.48510 1709 ft 168 kts 103°
2026-05-06 10:00 39.50409 116.50120 1973 ft 201 kts 103°
2026-05-06 10:00 39.50066 116.52032 2295 ft 233 kts 102°
2026-05-06 10:00 39.49690 116.54156 2866 ft 250 kts 102°
2026-05-06 10:01 39.49289 116.56392 3581 ft 260 kts 101°
2026-05-06 10:01 39.48874 116.58702 4402 ft 266 kts 100°
2026-05-06 10:01 39.48450 116.61062 5182 ft 273 kts 100°
2026-05-06 10:01 39.48014 116.63487 5988 ft 280 kts 99°
2026-05-06 10:02 39.47595 116.65973 6795 ft 286 kts 97°
2026-05-06 10:02 39.47223 116.68549 7543 ft 296 kts 97°
2026-05-06 10:02 39.46846 116.71207 8355 ft 305 kts 97°
2026-05-06 10:02 39.46438 116.73938 9177 ft 315 kts 100°
2026-05-06 10:03 39.45604 116.76603 9942 ft 327 kts 124°
2026-05-06 10:03 39.43950 116.78637 10509 ft 337 kts 153°
2026-05-06 10:03 39.41770 116.79932 10859 ft 355 kts 163°
2026-05-06 10:03 39.39395 116.81071 11322 ft 371 kts 165°
2026-05-06 10:04 39.36959 116.82240 12103 ft 375 kts 164°
2026-05-06 10:04 39.34524 116.83439 13127 ft 373 kts 165°
2026-05-06 10:04 39.32147 116.84632 14089 ft 371 kts 165°
2026-05-06 10:04 39.29731 116.85842 14845 ft 375 kts 166°
2026-05-06 10:05 39.27281 116.87067 15559 ft 380 kts 166°
2026-05-06 10:05 39.24809 116.88312 16302 ft 383 kts 165°
2026-05-06 10:05 39.22314 116.89568 17076 ft 386 kts 166°
2026-05-06 10:05 39.19805 116.90831 17845 ft 389 kts 166°
2026-05-06 10:06 39.17275 116.92104 18541 ft 393 kts 166°
2026-05-06 10:06 39.14712 116.93392 19096 ft 398 kts 166°
2026-05-06 10:06 39.12115 116.94699 19716 ft 403 kts 166°
2026-05-06 10:06 39.09487 116.96026 20301 ft 409 kts 166°
2026-05-06 10:07 39.06819 116.97365 20877 ft 415 kts 166°
2026-05-06 10:07 39.04112 116.98723 21483 ft 420 kts 166°
2026-05-06 10:07 39.01365 117.00101 22087 ft 426 kts 166°
2026-05-06 10:07 38.98588 117.01494 22686 ft 431 kts 166°
2026-05-06 10:08 38.95773 117.02905 23280 ft 437 kts 166°
2026-05-06 10:08 38.92922 117.04333 23789 ft 442 kts 166°
2026-05-06 10:08 38.90020 117.05684 24244 ft 442 kts 171°
2026-05-06 10:08 38.87026 117.06333 24756 ft 431 kts 186°
2026-05-06 10:09 38.84091 117.06000 25329 ft 418 kts 200°
2026-05-06 10:09 38.81399 117.04765 25889 ft 406 kts 214°
2026-05-06 10:09 38.79089 117.02774 26471 ft 397 kts 227°
2026-05-06 10:09 38.77254 117.00189 27037 ft 390 kts 239°
2026-05-06 10:10 38.75957 116.97168 27616 ft 386 kts 250°
2026-05-06 10:10 38.75092 116.93910 28190 ft 387 kts 253°
2026-05-06 10:10 38.74062 116.90709 28699 ft 391 kts 247°
2026-05-06 10:10 38.72829 116.87590 29234 ft 394 kts 245°
2026-05-06 10:11 38.71541 116.84479 29750 ft 397 kts 245°
2026-05-06 10:11 38.70232 116.81354 30180 ft 400 kts 244°
2026-05-06 10:11 38.68885 116.78225 30594 ft 403 kts 243°
2026-05-06 10:11 38.67323 116.75232 31001 ft 408 kts 237°
2026-05-06 10:12 38.65434 116.72490 31417 ft 414 kts 230°
2026-05-06 10:12 38.63225 116.70084 31810 ft 422 kts 222°
2026-05-06 10:12 38.60714 116.68075 32193 ft 431 kts 215°
2026-05-06 10:12 38.57936 116.66529 32526 ft 441 kts 207°
2026-05-06 10:13 38.54935 116.65513 32866 ft 453 kts 199°
2026-05-06 10:13 38.51794 116.64924 33197 ft 459 kts 196°
2026-05-06 10:13 38.48610 116.64516 33684 ft 459 kts 194°
2026-05-06 10:13 38.45433 116.64195 34170 ft 457 kts 194°
2026-05-06 10:14 38.42268 116.63897 34576 ft 455 kts 194°
2026-05-06 10:14 38.39116 116.63591 34910 ft 454 kts 194°
2026-05-06 10:14 38.35975 116.63268 35301 ft 452 kts 194°
2026-05-06 10:14 38.32838 116.62967 35659 ft 454 kts 192°
2026-05-06 10:15 38.29653 116.63016 35988 ft 463 kts 186°
2026-05-06 10:15 38.26427 116.63602 36284 ft 475 kts 178°
2026-05-06 10:15 38.23202 116.64600 36605 ft 479 kts 176°
2026-05-06 10:15 38.19988 116.65739 36907 ft 480 kts 175°
2026-05-06 10:16 38.16782 116.66947 37180 ft 480 kts 174°
2026-05-06 10:16 38.13588 116.68176 37532 ft 479 kts 174°
2026-05-06 10:16 38.10403 116.69402 37846 ft 478 kts 174°
2026-05-06 10:16 38.07221 116.70633 38133 ft 478 kts 174°
2026-05-06 10:17 38.04045 116.71862 38414 ft 477 kts 174°
2026-05-06 10:17 38.00874 116.73083 38645 ft 476 kts 174°
2026-05-06 10:17 37.97700 116.74298 38814 ft 477 kts 174°
2026-05-06 10:17 37.94518 116.75511 38971 ft 478 kts 174°
2026-05-06 10:18 37.91334 116.76720 39133 ft 479 kts 174°
2026-05-06 10:18 37.88138 116.77932 39295 ft 479 kts 174°
2026-05-06 10:18 37.84944 116.79142 39455 ft 480 kts 174°
2026-05-06 10:18 37.81742 116.80355 39619 ft 480 kts 174°
2026-05-06 10:19 37.78538 116.81567 39770 ft 481 kts 174°
2026-05-06 10:19 37.75370 116.82765 39915 ft 482 kts 174°
2026-05-06 10:19 37.72156 116.83980 40059 ft 482 kts 174°
2026-05-06 10:19 37.68891 116.85210 40096 ft 485 kts 173°
2026-05-06 10:20 37.65694 116.86414 40204 ft 486 kts 173°
2026-05-06 10:20 37.62455 116.87635 40365 ft 486 kts 173°
2026-05-06 10:20 37.59216 116.88858 40547 ft 486 kts 173°
2026-05-06 10:20 37.55978 116.90078 40685 ft 486 kts 173°
2026-05-06 10:21 37.52736 116.91297 40816 ft 487 kts 173°
2026-05-06 10:21 37.49487 116.92517 40889 ft 488 kts 173°
2026-05-06 10:21 37.42944 116.94971 40893 ft 487 kts 172°
2026-05-06 10:22 37.36486 116.97389 40896 ft 487 kts 172°
2026-05-06 10:22 37.29987 116.99818 40893 ft 487 kts 172°
2026-05-06 10:23 37.23527 117.02555 40869 ft 493 kts 168°
2026-05-06 10:23 37.17125 117.05684 40893 ft 494 kts 167°
2026-05-06 10:24 37.10721 117.08786 40892 ft 493 kts 168°
2026-05-06 10:24 37.04301 117.11812 40889 ft 493 kts 168°
2026-05-06 10:25 36.97878 117.14800 40883 ft 492 kts 168°
2026-05-06 10:25 36.91453 117.17778 40891 ft 493 kts 168°
2026-05-06 10:26 36.84996 117.20573 40887 ft 486 kts 174°
2026-05-06 10:26 36.78433 117.21586 40895 ft 470 kts 186°
2026-05-06 10:27 36.71912 117.21642 40895 ft 469 kts 188°
2026-05-06 10:27 36.65383 117.21528 40899 ft 470 kts 188°
2026-05-06 10:28 36.58843 117.21433 40901 ft 471 kts 188°
2026-05-06 10:28 36.52298 117.21376 40886 ft 470 kts 188°
2026-05-06 10:29 36.45748 117.21331 40904 ft 472 kts 188°
2026-05-06 10:29 36.39146 117.22346 40891 ft 487 kts 174°
2026-05-06 10:30 36.32584 117.24595 40890 ft 491 kts 171°
2026-05-06 10:30 36.26086 117.27064 40896 ft 492 kts 170°
2026-05-06 10:31 36.19540 117.29552 40892 ft 492 kts 171°
2026-05-06 10:31 36.12984 117.32001 40891 ft 492 kts 171°
2026-05-06 10:32 36.06422 117.34428 40859 ft 492 kts 171°
2026-05-06 10:32 35.99860 117.36848 40889 ft 493 kts 171°
2026-05-06 10:33 35.93289 117.39297 40891 ft 494 kts 171°
2026-05-06 10:33 35.86715 117.41763 40892 ft 494 kts 171°
2026-05-06 10:34 35.80143 117.44223 40883 ft 494 kts 171°
2026-05-06 10:34 35.74677 117.46264 40890 ft 494 kts 171°
2026-05-06 10:35 35.66982 117.49129 40901 ft 496 kts 171°
2026-05-06 10:35 35.61474 117.51174 40904 ft 498 kts 171°
2026-05-06 10:36 35.54835 117.53638 40902 ft 499 kts 171°
2026-05-06 10:36 35.48194 117.56100 40907 ft 498 kts 171°
2026-05-06 10:37 35.41551 117.58558 40908 ft 498 kts 171°
2026-05-06 10:37 35.34915 117.61009 40912 ft 498 kts 171°
2026-05-06 10:38 35.28281 117.63452 40912 ft 497 kts 171°
2026-05-06 10:38 35.21670 117.65886 40916 ft 495 kts 171°
2026-05-06 10:39 35.15070 117.68309 40917 ft 495 kts 171°
2026-05-06 10:39 35.08475 117.70727 40918 ft 495 kts 171°
2026-05-06 10:40 35.01865 117.73146 40923 ft 497 kts 171°
2026-05-06 10:40 34.95237 117.75572 40920 ft 497 kts 170°
2026-05-06 10:41 34.88605 117.78000 40920 ft 498 kts 171°
2026-05-06 10:41 34.81975 117.80427 40894 ft 498 kts 170°
2026-05-06 10:42 34.75326 117.82843 40923 ft 499 kts 170°
2026-05-06 10:42 34.68657 117.85233 40925 ft 500 kts 170°
2026-05-06 10:43 34.62033 117.87606 40923 ft 500 kts 170°
2026-05-06 10:44 34.52029 117.91189 40927 ft 500 kts 170°
2026-05-06 10:44 34.45352 117.93579 40928 ft 500 kts 170°
2026-05-06 10:45 34.38676 117.95964 40927 ft 500 kts 170°
2026-05-06 10:45 34.32002 117.98345 40904 ft 500 kts 170°
2026-05-06 10:46 34.25323 118.00733 40930 ft 501 kts 169°
2026-05-06 10:46 34.18652 118.03164 40930 ft 501 kts 169°
2026-05-06 10:47 34.11980 118.05599 40934 ft 501 kts 169°
2026-05-06 10:47 34.05306 118.08027 40930 ft 501 kts 169°
2026-05-06 10:48 33.98625 118.10457 40937 ft 502 kts 169°
2026-05-06 10:48 33.91942 118.12894 40937 ft 502 kts 169°
2026-05-06 10:49 33.85256 118.15321 40937 ft 502 kts 169°
2026-05-06 10:49 33.78576 118.17751 40937 ft 501 kts 169°
2026-05-06 10:50 33.71904 118.20182 40946 ft 501 kts 169°
2026-05-06 10:50 33.65238 118.22604 40945 ft 500 kts 169°
2026-05-06 10:51 33.58570 118.25025 40948 ft 500 kts 169°
2026-05-06 10:51 33.51904 118.27441 40949 ft 501 kts 169°
2026-05-06 10:52 33.45235 118.29855 40952 ft 501 kts 169°
2026-05-06 10:52 33.38567 118.32265 40949 ft 501 kts 169°
2026-05-06 10:53 33.31942 118.34656 40954 ft 501 kts 169°
2026-05-06 10:53 33.25270 118.37059 40943 ft 501 kts 169°
2026-05-06 10:54 33.18588 118.39467 40955 ft 502 kts 169°
2026-05-06 10:54 33.11899 118.41876 40953 ft 502 kts 169°
2026-05-06 10:55 33.05206 118.44282 40960 ft 502 kts 169°
2026-05-06 10:55 32.98517 118.46683 40963 ft 502 kts 169°
2026-05-06 10:56 32.91828 118.49081 40961 ft 502 kts 169°
2026-05-06 10:56 32.85140 118.51474 40961 ft 502 kts 169°
2026-05-06 10:57 32.78447 118.53865 40942 ft 502 kts 169°
2026-05-06 10:57 32.71752 118.56253 40966 ft 503 kts 169°
2026-05-06 10:58 32.65597 118.58445 40965 ft 503 kts 169°
2026-05-06 10:58 32.58884 118.60746 40965 ft 502 kts 170°
2026-05-06 10:59 32.52165 118.63003 40951 ft 502 kts 170°
2026-05-06 10:59 32.45443 118.65267 40964 ft 502 kts 170°
2026-05-06 11:00 32.38766 118.67524 40969 ft 503 kts 170°
2026-05-06 11:00 32.32031 118.69802 40973 ft 504 kts 170°
2026-05-06 11:01 32.25290 118.72086 40962 ft 504 kts 169°
2026-05-06 11:01 32.18550 118.74346 40969 ft 504 kts 170°
2026-05-06 11:02 32.11809 118.76593 40969 ft 504 kts 170°
2026-05-06 11:02 32.05062 118.78844 40972 ft 504 kts 170°
2026-05-06 11:03 31.98321 118.81093 40956 ft 504 kts 169°
2026-05-06 11:03 31.91564 118.83286 40961 ft 503 kts 171°
2026-05-06 11:03 31.88191 118.84353 40724 ft 500 kts 171°
2026-05-06 11:04 31.84831 118.85414 39995 ft 501 kts 171°
2026-05-06 11:04 31.81459 118.86505 39252 ft 504 kts 169°
2026-05-06 11:04 31.78133 118.87868 38543 ft 510 kts 161°
2026-05-06 11:04 31.74969 118.89813 37717 ft 517 kts 152°
2026-05-06 11:05 31.72062 118.92356 36815 ft 524 kts 144°
2026-05-06 11:05 31.69295 118.95160 35994 ft 526 kts 143°
2026-05-06 11:05 31.66404 118.97775 35258 ft 523 kts 148°
2026-05-06 11:05 31.63460 119.00285 34535 ft 523 kts 147°
2026-05-06 11:06 31.60549 119.02864 33695 ft 526 kts 146°
2026-05-06 11:06 31.57649 119.05487 32793 ft 527 kts 146°
2026-05-06 11:06 31.54742 119.08120 31922 ft 528 kts 146°
2026-05-06 11:06 31.51825 119.10741 31042 ft 529 kts 146°
2026-05-06 11:07 31.48889 119.13352 30260 ft 529 kts 146°
2026-05-06 11:07 31.45960 119.15938 29557 ft 525 kts 146°
2026-05-06 11:07 31.43050 119.18496 28881 ft 520 kts 146°
2026-05-06 11:07 31.40170 119.21013 28245 ft 514 kts 147°
2026-05-06 11:08 31.37321 119.23495 27618 ft 508 kts 147°
2026-05-06 11:08 31.34495 119.25952 26984 ft 503 kts 147°
2026-05-06 11:08 31.31700 119.28381 26351 ft 498 kts 147°
2026-05-06 11:08 31.28932 119.30787 25741 ft 493 kts 147°
2026-05-06 11:09 31.26191 119.33169 25129 ft 489 kts 147°
2026-05-06 11:09 31.23476 119.35527 24525 ft 484 kts 147°
2026-05-06 11:09 31.20784 119.37865 23923 ft 480 kts 147°
2026-05-06 11:09 31.18118 119.40184 23288 ft 476 kts 147°
2026-05-06 11:10 31.15485 119.42486 22634 ft 470 kts 147°
2026-05-06 11:10 31.12920 119.44730 22026 ft 464 kts 147°
2026-05-06 11:10 31.10356 119.46971 21420 ft 457 kts 147°
2026-05-06 11:10 31.07792 119.49208 20834 ft 452 kts 147°
2026-05-06 11:11 31.05289 119.51392 20235 ft 447 kts 147°
2026-05-06 11:11 31.02845 119.53522 19644 ft 443 kts 147°
2026-05-06 11:11 31.00388 119.55662 19044 ft 439 kts 146°
2026-05-06 11:11 30.97951 119.57784 18444 ft 436 kts 146°
2026-05-06 11:12 30.95529 119.59890 17785 ft 432 kts 146°
2026-05-06 11:12 30.93134 119.61973 17160 ft 427 kts 146°
2026-05-06 11:12 30.90769 119.64028 16561 ft 421 kts 146°
2026-05-06 11:12 30.88434 119.66055 15953 ft 416 kts 146°
2026-05-06 11:13 30.86127 119.68058 15361 ft 412 kts 146°
2026-05-06 11:13 30.83844 119.70037 14760 ft 407 kts 146°
2026-05-06 11:13 30.81587 119.71993 14169 ft 402 kts 145°
2026-05-06 11:13 30.79353 119.73928 13553 ft 398 kts 145°
2026-05-06 11:14 30.77148 119.75837 12937 ft 393 kts 145°
2026-05-06 11:14 30.74969 119.77724 12342 ft 389 kts 145°
2026-05-06 11:14 30.72808 119.79593 11760 ft 385 kts 145°
2026-05-06 11:14 30.70691 119.81434 11492 ft 372 kts 144°
2026-05-06 11:15 30.68704 119.83240 11365 ft 354 kts 143°
2026-05-06 11:15 30.66817 119.84977 11272 ft 338 kts 143°
2026-05-06 11:15 30.65015 119.86627 11174 ft 322 kts 144°
2026-05-06 11:15 30.63197 119.88025 11061 ft 305 kts 152°
2026-05-06 11:16 30.61382 119.89211 10938 ft 294 kts 153°
2026-05-06 11:16 30.59612 119.90334 10719 ft 288 kts 154°
2026-05-06 11:16 30.57852 119.91445 10369 ft 288 kts 154°
2026-05-06 11:16 30.56100 119.92552 10075 ft 286 kts 154°
2026-05-06 11:17 30.54354 119.93656 9766 ft 288 kts 154°
2026-05-06 11:17 30.52565 119.94788 9419 ft 296 kts 154°
2026-05-06 11:17 30.50761 119.95930 9098 ft 295 kts 154°
2026-05-06 11:17 30.48965 119.97069 8792 ft 293 kts 154°
2026-05-06 11:18 30.47187 119.98196 8462 ft 290 kts 154°
2026-05-06 11:18 30.45424 119.99313 8140 ft 288 kts 154°
2026-05-06 11:18 30.43669 120.00427 7834 ft 287 kts 154°
2026-05-06 11:18 30.41928 120.01539 7769 ft 286 kts 154°
2026-05-06 11:19 30.40713 120.02307 7724 ft 286 kts 154°
2026-05-06 11:19 30.39586 120.03017 7687 ft 285 kts 154°
2026-05-06 11:26 30.38012 120.04007 7760 ft 286 kts 152°
2026-05-06 11:27 30.36263 120.05110 7473 ft 285 kts 154°
2026-05-06 11:27 30.34537 120.06200 7443 ft 284 kts 154°
2026-05-06 11:27 30.32807 120.07294 7399 ft 283 kts 154°
2026-05-06 11:27 30.31079 120.08387 7333 ft 283 kts 154°
2026-05-06 11:28 30.29353 120.09477 7266 ft 283 kts 154°
2026-05-06 11:28 30.27629 120.10566 7195 ft 282 kts 154°
2026-05-06 11:28 30.25909 120.11652 7114 ft 281 kts 154°
2026-05-06 11:28 30.24181 120.12723 7043 ft 281 kts 157°
2026-05-06 11:29 30.22328 120.13359 6959 ft 276 kts 178°
2026-05-06 11:29 30.20463 120.13054 6908 ft 270 kts 203°
2026-05-06 11:29 30.18914 120.11873 6755 ft 267 kts 227°
2026-05-06 11:29 30.17944 120.10071 6453 ft 265 kts 247°
2026-05-06 11:30 30.17179 120.08189 6284 ft 253 kts 237°
2026-05-06 11:30 30.15899 120.06890 6099 ft 244 kts 204°
2026-05-06 11:30 30.14257 120.06697 5899 ft 239 kts 171°
2026-05-06 11:30 30.12720 120.07371 5681 ft 235 kts 157°
2026-05-06 11:31 30.11280 120.08235 5402 ft 232 kts 154°
2026-05-06 11:31 30.09966 120.09310 5079 ft 234 kts 136°
2026-05-06 11:31 30.09195 120.10940 4812 ft 234 kts 104°
2026-05-06 11:31 30.09281 120.12768 4611 ft 235 kts 75°
2026-05-06 11:32 30.09943 120.14502 4389 ft 236 kts 64°
2026-05-06 11:32 30.10715 120.16172 4178 ft 236 kts 63°
2026-05-06 11:32 30.11503 120.17831 3962 ft 234 kts 61°
2026-05-06 11:32 30.12308 120.19413 3846 ft 223 kts 62°
2026-05-06 11:33 30.13015 120.20952 3725 ft 212 kts 65°
2026-05-06 11:33 30.13670 120.22443 3603 ft 205 kts 65°
2026-05-06 11:33 30.14307 120.23890 3386 ft 200 kts 64°
2026-05-06 11:33 30.14939 120.25313 3103 ft 199 kts 65°
2026-05-06 11:34 30.15567 120.26732 2821 ft 197 kts 65°
2026-05-06 11:34 30.16189 120.28136 2556 ft 195 kts 65°
2026-05-06 11:34 30.16801 120.29521 2329 ft 191 kts 65°
2026-05-06 11:34 30.17399 120.30873 2067 ft 186 kts 65°
2026-05-06 11:35 30.17979 120.32183 1810 ft 179 kts 65°
2026-05-06 11:35 30.18522 120.33410 1624 ft 166 kts 65°
2026-05-06 11:35 30.19028 120.34554 1389 ft 154 kts 65°
2026-05-06 11:35 30.19500 120.35622 1199 ft 146 kts 65°
2026-05-06 11:36 30.19944 120.36626 1011 ft 136 kts 66°
2026-05-06 11:36 30.20365 120.37582 847 ft 132 kts 64°
2026-05-06 11:36 30.20782 120.38526 678 ft 132 kts 64°
2026-05-06 11:36 30.21199 120.39454 501 ft 130 kts 64°
2026-05-06 11:37 30.21610 120.40381 347 ft 130 kts 64°
2026-05-06 11:37 30.22018 120.41310 196 ft 130 kts 63°
2026-05-06 11:37 30.22419 120.42238 41 ft 126 kts 64°
2026-05-06 11:37 30.22744 120.42972 37 ft 65 kts 62°
2026-05-06 11:38 30.22861 120.43235 40 ft 30 kts 63°
2026-05-06 11:38 30.22953 120.43443 41 ft 28 kts 63°
2026-05-06 11:38 30.23012 120.43568 41 ft 14 kts 55°
2026-05-06 11:38 30.23083 120.43661 40 ft 17 kts 41°
2026-05-06 11:39 30.23164 120.43727 40 ft 12 kts 33°
2026-05-06 11:39 30.23246 120.43788 39 ft 15 kts 30°
2026-05-06 11:39 30.23319 120.43797 38 ft 9 kts 332°
2026-05-06 11:39 30.23381 120.43756 38 ft 12 kts 332°
2026-05-06 11:40 30.23465 120.43706 38 ft 15 kts 333°
2026-05-06 11:40 30.23546 120.43658 38 ft 13 kts 333°
2026-05-06 11:40 30.23628 120.43610 38 ft 11 kts 333°
2026-05-06 11:40 30.23695 120.43570 38 ft 11 kts 333°
2026-05-06 11:41 30.23753 120.43536 38 ft 7 kts 333°
2026-05-06 11:41 30.23782 120.43497 38 ft 6 kts 287°
2026-05-06 11:41 30.23777 120.43460 38 ft 5 kts 251°
2026-05-06 11:41 30.23766 120.43434 38 ft 3 kts 240°
2026-05-06 11:42 30.23759 120.43418 38 ft 2 kts 242°
2026-05-06 11:42 30.23755 120.43410 38 ft 0 kts 242°
2026-05-06 11:42 30.23757 120.43415 38 ft 0 kts 242°
2026-05-06 11:42 30.23760 120.43421 38 ft 0 kts 242°